Regional Weather Roundup
Issued by NWS

Home | Current Version | Previous Version | Graphics & Text | Print | Product List | Glossary Off
Versions: 1 2 3 4 5 6 7 8 9 10 11 12 13 14 15 16 17 18 19 20 21 22 23 24 25 26 27 28 29 30 31 32 33 34 35 36 37 38 39 40 41 42 43 44 45 46 47 48 49 50

000
ASUS43 KDMX 090001
RWRIA

WEATHER ROUNDUP FOR IOWA
NATIONAL WEATHER SERVICE DES MOINES IA
600 PM CST THU DEC 08 2016

NOTE: "FAIR" INDICATES FEW OR NO CLOUDS BELOW 12,000 FEET WITH NO
SIGNIFICANT WEATHER AND/OR OBSTRUCTIONS TO VISIBILITY.

* - THESE STATIONS ARE NOT NWS STATIONS...THUS NOT UNDER NWS
QUALITY CONTROL.  THEY ALSO DO NOT REPORT WEATHER SUCH
AS PRECIPITATION OR FOG.

IAZ001>003-012>014-020>022-031>034-043>046-090100-
   NORTHWEST IOWA

CITY           SKY/WX    TMP DP  RH WIND       PRES   REMARKS
CARROLL *      CLEAR     19  10  68 NW13      30.56R WCI   7
CHEROKEE *     CLEAR     18   9  68 NW8       30.58R WCI   7
DENISON *      CLEAR     18   9  68 NW10      30.56S WCI   6
LE MARS *      CLEAR     18   9  68 NW10      30.61R WCI   6
ORANGE CITY *  CLEAR     16   9  73 NW12      30.57R WCI   3
SHELDON *      CLEAR     14   9  79 NW13G18   30.55R WCI   0
SIOUX CITY     CLEAR     20   7  57 NW12      30.62R WCI   8
6HR MIN TEMP:  19; 6HR MAX TEMP:  25;

SPENCER        CLEAR     15   9  76 W18       30.54R WCI  -2
6HR MIN TEMP:  15; 6HR MAX TEMP:  23;

STORM LAKE *   CLEAR     16   9  73 NW13      30.54R WCI   2
$$

IAZ055>058-069>071-079>083-090>094-090100-
   SOUTHWEST IOWA

CITY           SKY/WX    TMP DP  RH WIND       PRES   REMARKS
ATLANTIC *     CLEAR     18   9  68 NW8       30.59S WCI   7
AUDUBON *      CLEAR     18   9  68 W6        30.57R WCI   9
CLARINDA *     CLEAR     21  10  63 NW6       30.63S WCI  14
COUNCIL BLFS * CLEAR     19   9  63 NW8       30.60S WCI   9
CRESTON *      CLEAR     16   9  73 NW8       30.57R WCI   5
HARLAN  *      CLEAR     16   9  73 W9        30.62S WCI   4
LAMONI         CLEAR     18   9  68 NW9       30.56R WCI   7
6HR MIN TEMP:  18; 6HR MAX TEMP:  25;

RED OAK *      CLEAR     18   9  68 NW7       30.61S WCI   8
SHENANDOAH *   CLEAR     19  10  68 W5        30.63S WCI  13
$$

IAZ047>049-059>061-072>074-084-090100-
   CENTRAL IOWA

CITY           SKY/WX    TMP DP  RH WIND       PRES   REMARKS
AMES           MOCLDY    22  13  68 W10       30.53R WCI  11
6HR MIN TEMP:  20; 6HR MAX TEMP:  25;

ANKENY *       CLEAR     21  12  68 NW13      30.55S WCI   9
BOONE *        CLOUDY    21  10  63 NW12      30.51S WCI   9
CHARITON *     PTCLDY    19  10  68 NW7       30.54S WCI  10
DES MOINES     CLEAR     21  10  62 NW10      30.55R WCI  10
6HR MIN TEMP:  20; 6HR MAX TEMP:  25;

GRINNELL*      CLOUDY    23  15  70 W15       30.51R WCI  10
KNOXVILLE *    CLEAR     19  10  68 W9        30.52S WCI   9
MARSHALLTOWN   PTCLDY    22  14  71 NW15      30.49S WCI   9
6HR MIN TEMP:  18; 6HR MAX TEMP:  24; 6HR PCP: TRACE;

NEWTON *       CLOUDY    21  12  68 W10       30.51S WCI  10
PELLA *        CLEAR     21  12  68 W7        30.54S WCI  12
PERRY *          N/A     20  14  76 W13       30.55S WCI   7
$$

IAZ004>006-015-016-023>025-035-036-090100-
   NORTH CENTRAL IOWA

CITY           SKY/WX    TMP DP  RH WIND       PRES   REMARKS
ALGONA *       MOCLDY    18  10  73 NW12      30.51R WCI   5
CLARION *      CLOUDY    19  10  68 NW17      30.51R WCI   4
ESTHERVILLE    MOCLDY    16   9  74 NW14      30.51R WCI   2
6HR MIN TEMP:  15; 6HR MAX TEMP:  22;

FORT DODGE *   CLEAR     19   7  58 NW7       30.53R WCI  10
MASON CITY     FLURRIES  18  11  74 NW17      30.49R WCI   3
6HR MIN TEMP:  18; 6HR MAX TEMP:  23; 6HR PCP: TRACE;

WEBSTER CITY * CLOUDY    21  12  68 NW18      30.50R WCI   6
IOWA FALLS *     N/A     21  14  73 NW15      30.50R WCI   8
$$

IAZ007>011-017>019-026>030-037>042-050>054-066-090100-
   NORTHEAST IOWA

CITY           SKY/WX    TMP DP  RH WIND       PRES   REMARKS
CEDAR RAPIDS   CLOUDY    20  16  84 W12       30.47S WCI   8
6HR MIN TEMP:  18; 6HR MAX TEMP:  20; 6HR PCP: TRACE;

CHARLES CITY * FLURRIES  19  14  79 NW13      30.47R WCI   7
CLINTON *      FLURRIES  22  16  78 W21       30.46R WCI   6
DECORAH *      CLOUDY    19  14  79 NW10G16   30.41R WCI   8
DUBUQUE        CLOUDY    20  14  77 NW16      30.42R WCI   6
6HR MIN TEMP:  19; 6HR MAX TEMP:  21; 6HR PCP: TRACE;

MONTICELLO *   FLURRIES  21  16  79 NW12G18   30.46R WCI   9
OELWEIN *      FLURRIES  19  14  79 NW13      30.46S WCI   7
WATERLOO       CLOUDY    21  13  71 NW13      30.48R WCI   9
6HR MIN TEMP:  20; 6HR MAX TEMP:  22; 6HR PCP: TRACE;

$$

IAZ064-065-067-068-078-090100-
   EAST CENTRAL IOWA

CITY           SKY/WX    TMP DP  RH WIND       PRES   REMARKS
DAVENPORT      FLURRIES  22  15  75 W16       30.47R WCI   8
6HR MIN TEMP:  20; 6HR MAX TEMP:  22; 6HR PCP: TRACE;

IOWA CITY      CLOUDY    22  13  68 NW8       30.52S WCI  12
6HR MIN TEMP:  20; 6HR MAX TEMP:  22; 6HR PCP: TRACE;

MUSCATINE *    CLOUDY    23  12  63 NW12G20   30.53R WCI  12
QUAD CITIES    CLOUDY    23  13  65 W14       30.48R WCI  11
6HR MIN TEMP:  20; 6HR MAX TEMP:  23; 6HR PCP: TRACE;

$$

IAZ062-063-075>077-085>089-095>099-090100-
   SOUTHEAST IOWA

CITY           SKY/WX    TMP DP  RH WIND       PRES   REMARKS
BURLINGTON     CLOUDY    21  12  68 NW8       30.52R WCI  11
6HR MIN TEMP:  19; 6HR MAX TEMP:  21;

FAIRFIELD *    CLEAR     19  10  68 W8        30.52S WCI   9
FORT MADISON * CLOUDY    21  12  68 NW9       30.53S WCI  11
KEOKUK *       MOCLDY    21  12  68 NW7       30.53R WCI  13
OSKALOOSA *      N/A     19  13  76 W9        30.53R WCI   8
CENTERVILLE *    N/A     18  10  73 CALM      30.55S
OTTUMWA        CLEAR     20  10  65 W8        30.51S WCI  10
6HR MIN TEMP:  20; 6HR MAX TEMP:  25;

WASHINGTON *   CLOUDY    21  14  73 NW10      30.53S WCI  10
$$

ABBREVIATIONS USED IN REMARKS
   TC - TEMPERATURES IN CELSIUS
  WCI - WIND CHILL INDEX
   HX - HEAT INDEX
  VSB - VISIBILITY
$$




USA.gov is the U.S. government's official web portal to all federal, state and local government web resources and services.